STARLINK-34599, 64919

Orbit data source: Space-Track

STARLINK-34599, 64919 is a payload satellite owned by SpaceX/Seattle (US) in LEO that was launched on Sat, 26 Jul 2025 UTC via an FALCON 9 launch vehicle from the Air Force Eastern Test Range (AFETR). Payload-class satellites include a variety of spacecraft equipped with specific instruments for various scientific and technological missions. These include communications satellites like Starlink; space stations such as the ISS; scientific satellites like the Hubble; Earth observation satellites from companies like Planet Labs, Umbra, and HawkEye 360; GPS; miniature CubeSats for education and research; and military/defense satellites.

Loading next visibility...
Identifier
64919, 2025-157R
Orbit
LEO
Country
Flag of USUS
Related business
Manufacturer
SpaceX/Seattle
Mission
Operational Commercial Communications
Bus & Motor
STARLINK V2MO, Unknown motor
Mass
575 kg wet, ~530 kg dry
Launch date (UTC)
2025-07-26 (10 months ago)
Launch vehicle
FALCON 9
Launch site
Air Force Eastern Test Range (AFETR)
Object type
Payload
Rocket body
Debris
Shape & HBR
Box + 2 Pan, 17.7 m
Radar Cross Section
36.964 m², Large (>1 m²)

Expand to show TLE details & history
Last TLE update: 8 hours ago

TLE from 8 hours ago
0 STARLINK-34599
1 64919U 25157R   26145.55803320  .00014305  00000-0  49400-3 0  9996
2 64919  53.1606 348.5383 0001492 105.3055 254.8111 15.30211366 47899
Epoch: 2026-05-25T13:23Z
TLE epoch observation values (Epoch: 2026-05-25T13:23:34.068Z)
Latitude
-0°
Longitude
-95.49776°
Altitude
476.349 km
Speed
7.629 km/s
True Right ascension
23h 14m 09s
True Declination
0° 00' 00"
Sunlit
Object was in daylight at epoch
Visualization orbit readout
Latitude
Unknown
Longitude
Unknown
Altitude
Unknown
Speed
Unknown
Apparent Right ascension
Unknown
Apparent Declination
Unknown
Sunlit
N/A
Visualization observer readout
Local Sidereal Time
06:09:30
Azimuth
Unknown
Elevation
Unknown
Doppler factor
Unknown
Orbital elements
Apogee altitude
476.46 km
Perigee altitude
474.415 km
Semi-major axis
6,853.574 km
Eccentricity
0.00015
Inclination
53.1606°
RAAN
348.5383°
Arg. of periapsis
105.3055°
True anomaly
254.7946°
Mean anomaly
254.8111°
Eccentric anomaly
254.80285°
Mean motion
3.82532 °/min
Orbital period
94.11 mins
BSTAR
0.000494
Loading maneuver chart data...
Computing Atmospheric mass density...
Loading historical data...
Loading historical data...
Loading historical data...
Loading historical data...
Loading historical data...
Loading historical data...
Loading historical data...

Documentation

Showing up to 5 results
|